Location: Poughquag
(41.6090°N, 73.6820°W)
Time: 12:42:48
(UTC-04:00)

A-11 Canister half - Pass Details

Date: 04 June 2020
Orbit: 1527 x 1682 km, 47.3° (Epoch: 06 July)

Event Time Altitude Azimuth Distance (km) Brightness Sun altitude
Rises 13:16:21 0° 297° (WNW) 4,718 11.5 70.3°
Reaches altitude 10° 13:19:26 10° 294° (WNW) 3,749 11.2 70.2°
Maximum altitude 13:28:38 57° 219° (SW) 1,827 11.5 69.5°
Drops below altitude 10° 13:38:08 10° 144° (SE) 3,856 11.4 68.7°
Sets 13:41:22 0° 140° (SE) 4,860 11.7 68.4°
